Simultaneous Nadir Overpasses (SNOs) Predictions

Prediction of SNOs between TERRA and METOP-C Satellite Orbit:

Table of predicted SNOs for the next 14.0 days since TLE Epoch: 5/4/2024
Index Date (TERRA) Time (TERRA) Lat,Lon (TERRA) SZA (TERRA ) Date (METOP-C) Time (METOP-C) Lat,Lon (METOP-C) SZA (METOP-C ) Distance(km) Time Diff (sec)
1 05/06/2024 10:05:03 78.38, 39.26 61.82 05/06/2024 10:04:31 78.37, 39.19 61.81 1.57 32
2 05/06/2024 10:54:16 -78.74,-151.24 117.75 05/06/2024 10:55:02 -78.74,-151.27 117.74 0.80 46
3 05/09/2024 00:36:02 78.19,-179.40 60.90 05/09/2024 00:34:54 78.19,-179.39 60.89 0.22 68
4 05/09/2024 01:25:15 -78.57, -9.91 118.67 05/09/2024 01:25:25 -78.57, -9.91 118.67 0.05 10
5 05/11/2024 15:56:16 -78.28, 130.91 119.69 05/11/2024 15:55:51 -78.27, 130.78 119.71 3.17 25
6 05/11/2024 16:45:27 78.65, -59.56 60.76 05/11/2024 16:46:21 78.65, -59.64 60.76 2.00 54
7 05/14/2024 06:27:11 -78.18, -87.31 120.44 05/14/2024 06:26:10 -78.19, -87.20 120.44 2.57 61
8 05/14/2024 07:16:25 78.47, 81.72 59.89 05/14/2024 07:16:44 78.46, 81.64 59.89 1.95 19
9 05/16/2024 21:47:22 78.29,-136.87 59.08 05/16/2024 21:47:06 78.30,-136.85 59.09 0.50 16



Historial Predications of SNOs between TERRA and METOP-C
